"Pseudo-MPEC" for P22mrgx

Created 2026 Mar 9 16:35:28 UT using Find_Orb

Click here for an explanation of pseudo-MPECs

 
 Astrometry: 
     P22mrgx 1C2026 02 23.36419711 31 47.856+11 58 50.48   ~39DZ 21.69GVNEOCPG96
     P22mrgx 1C2026 02 23.36979411 31 47.946+11 59 00.56   ~39DZ 21.66GVNEOCPG96
     P22mrgx 1C2026 02 23.37541511 31 48.032+11 59 11.29   ~39DZ 21.92GVNEOCPG96
     P22mrgx 1C2026 02 23.38101111 31 48.104+11 59 21.98   ~39DZ 21.18GVNEOCPG96
     P22mrgx*0C2026 03 09.34813111 34 57.314+19 12 51.02   ~39AK 21.55wXNEOCPF52
     P22mrgx 0C2026 03 09.36105111 34 57.357+19 13 13.91   ~39AK 21.62wXNEOCPF52
     P22mrgx 0C2026 03 09.37395711 34 57.409+19 13 36.90   ~39AK 21.95wXNEOCPF52
     P22mrgx 0C2026 03 09.38684711 34 57.460+19 13 59.97   ~39AK 21.52wXNEOCPF52

Station data:
(F52) Pan-STARRS 2, Haleakala  (N20.707382 W156.255910)  US/Hawaii.
   Observers J. Herman, T. Lowe, P. Minguez, A. Schultz, I. Smith. Measurers
   K. Chambers, T. de Boer, J. Fairlamb, H. Gao, M. Huber, C.-C. Lin, E.
   Magnier, Y. Ramanjooloo, R. Wainscoat, R. Weryk. 1.8-m Ritchey-Chrétien +
   CCD.
(G96) Mt. Lemmon Survey  (N32.442729 W110.788720)  US/Arizona.  Observer E.
   J. Christensen. Measurers T. Beuden, V. F. Carvajal, D. Fay, J. B.
   Fazekas, D. C. Fuls, A. R. Gibbs, A. D. Grauer, H. Gröller, J. K. Hogan,
   R. A. Kowalski, S. M. Larson, G. J. Leonard, D. Rankin, R. L. Seaman, F.
   C. Shelly, K. W. Wierzchoś. 1.5-m reflector + 10K CCD.

Orbital elements:  P22mrgx
   Perihelion 2026 Mar 3.414856 +/- 3.48 TT =  9:57:23.5 (JD 2461102.914856)
Epoch 2026 Mar  9.0 TT = JDT 2461108.5   Earth MOID: 0.6412   Ju: 0.6057
M   1.045965324 +/- 0.6             Ma: 0.0330                   AutoNEOCP
n   0.187276331 +/- 0.0249          Peri.   14.284289 +/- 2.1
a   3.025618171 +/- 0.269           Node   150.981509 +/- 0.48
e   0.46252933 +/- 0.0354           Incl.   20.002349 +/- 1.2
P   5.26285                H 20.95  G  0.15   U 10.3
q 1.626181024 +/- 0.0372    Q 4.425055318 +/- 0.5         (J2000 ecliptic)
From 8 observations 2026 Feb. 23-Mar. 9; mean residual 0".10
Residuals in arcseconds: 
260223 G96  .00   .16+    260223 G96  .13-  .15+    260309 F52  .03-  .07-    
260223 G96  .07+  .25-    260309 F52  .06+  .07+    260309 F52  .04+  .07+    
260223 G96  .07+  .06-    260309 F52  .07-  .07-    

Ephemerides (geocentric):
Date (UTC) HH   RA             Dec           delta  r     elong  mag " sig PA
---- --------  ------------   ------------  ------ ------ -----  --- --------
2026 03 09 17  11 34 59.846   +19 23 27.36  .64855 1.6272 164.5 21.7 1.13  14
2026 03 09 18  11 35 00.200   +19 24 40.62  .64860 1.6272 164.5 21.7 1.09   8
2026 03 09 19  11 35 00.553   +19 25 53.84  .64865 1.6272 164.5 21.7 1.05   2
2026 03 09 20  11 35 00.906   +19 27 07.01  .64871 1.6272 164.5 21.7 1.03 176
2026 03 09 21  11 35 01.258   +19 28 20.14  .64876 1.6273 164.4 21.7 1.02 170
2026 03 09 22  11 35 01.609   +19 29 33.23  .64881 1.6273 164.4 21.7 1.02 163
2026 03 09 23  11 35 01.960   +19 30 46.27  .64887 1.6273 164.4 21.7 1.03 156
2026 03 10 00  11 35 02.310   +19 31 59.27  .64892 1.6273 164.3 21.7 1.06 150
2026 03 10 01  11 35 02.660   +19 33 12.22  .64897 1.6273 164.3 21.7 1.10 144
2026 03 10 02  11 35 03.008   +19 34 25.12  .64903 1.6273 164.3 21.7 1.15 139
2026 03 10 03  11 35 03.357   +19 35 37.98  .64908 1.6273 164.3 21.7 1.21 133
2026 03 10 04  11 35 03.704   +19 36 50.79  .64914 1.6274 164.2 21.7 1.27 129
2026 03 10 05  11 35 04.051   +19 38 03.56  .64919 1.6274 164.2 21.7 1.35 125
2026 03 10 06  11 35 04.398   +19 39 16.28  .64925 1.6274 164.2 21.7 1.43 121
2026 03 10 07  11 35 04.744   +19 40 28.96  .64931 1.6274 164.2 21.7 1.51 117
2026 03 10 08  11 35 05.089   +19 41 41.59  .64936 1.6274 164.1 21.7 1.60 114
2026 03 10 09  11 35 05.434   +19 42 54.17  .64942 1.6274 164.1 21.7 1.70 112
2026 03 10 10  11 35 05.778   +19 44 06.71  .64948 1.6274 164.1 21.7 1.80 109
2026 03 10 11  11 35 06.122   +19 45 19.20  .64954 1.6275 164.0 21.7 1.90 107
2026 03 10 12  11 35 06.465   +19 46 31.64  .64960 1.6275 164.0 21.7 2.00 105
2026 03 10 13  11 35 06.807   +19 47 44.04  .64966 1.6275 164.0 21.7 2.11 103
2026 03 10 14  11 35 07.149   +19 48 56.39  .64971 1.6275 164.0 21.7 2.22 101
2026 03 10 15  11 35 07.490   +19 50 08.69  .64977 1.6275 163.9 21.7 2.33 100
2026 03 10 16  11 35 07.831   +19 51 20.94  .64983 1.6275 163.9 21.7 2.44  98
2026 03 10 17  11 35 08.171   +19 52 33.15  .64989 1.6276 163.9 21.7 2.55  97
2026 03 10 18  11 35 08.511   +19 53 45.30  .64996 1.6276 163.8 21.7 2.67  96
2026 03 10 19  11 35 08.850   +19 54 57.41  .65002 1.6276 163.8 21.7 2.78  94
2026 03 10 20  11 35 09.189   +19 56 09.47  .65008 1.6276 163.8 21.7 2.90  93
2026 03 10 21  11 35 09.527   +19 57 21.49  .65014 1.6276 163.8 21.7 3.02  92
2026 03 10 22  11 35 09.865   +19 58 33.45  .65020 1.6276 163.7 21.7 3.14  91
2026 03 10 23  11 35 10.202   +19 59 45.37  .65027 1.6277 163.7 21.7 3.26  91
2026 03 11 00  11 35 10.539   +20 00 57.24  .65033 1.6277 163.7 21.7 3.38  90
2026 03 11 01  11 35 10.875   +20 02 09.06  .65039 1.6277 163.6 21.7 3.51  89
2026 03 11 02  11 35 11.211   +20 03 20.82  .65046 1.6277 163.6 21.7 3.63  88
2026 03 11 03  11 35 11.546   +20 04 32.54  .65052 1.6277 163.6 21.7 3.76  87
2026 03 11 04  11 35 11.881   +20 05 44.22  .65059 1.6277 163.6 21.7 3.88  87
2026 03 11 05  11 35 12.215   +20 06 55.84  .65065 1.6278 163.5 21.7 4.01  86
2026 03 11 06  11 35 12.549   +20 08 07.41  .65072 1.6278 163.5 21.7 4.14  85
2026 03 11 07  11 35 12.882   +20 09 18.93  .65078 1.6278 163.5 21.7 4.27  85
2026 03 11 08  11 35 13.215   +20 10 30.40  .65085 1.6278 163.4 21.7 4.40  84
2026 03 11 09  11 35 13.547   +20 11 41.82  .65091 1.6278 163.4 21.7 4.53  83
2026 03 11 10  11 35 13.879   +20 12 53.20  .65098 1.6278 163.4 21.7 4.66  83
2026 03 11 11  11 35 14.211   +20 14 04.52  .65105 1.6279 163.3 21.7 4.79  82
2026 03 11 12  11 35 14.542   +20 15 15.79  .65112 1.6279 163.3 21.7 4.92  82
2026 03 11 13  11 35 14.873   +20 16 27.01  .65119 1.6279 163.3 21.7 5.05  81
2026 03 11 14  11 35 15.203   +20 17 38.18  .65125 1.6279 163.2 21.7 5.19  81
2026 03 11 15  11 35 15.533   +20 18 49.29  .65132 1.6279 163.2 21.7 5.32  80
2026 03 11 16  11 35 15.862   +20 20 00.36  .65139 1.6279 163.2 21.7 5.46  80